DW0529 Weather Reports


time (UTC)temp
F
wind
direction
speed
knots
gust
knots
rain 1hr
in
rain 24hr
in
rain mn
in
humidity
%
barometer
mb
20210927074714 58 198 0.0 0.0 0.00 0.00 0.00 94 970.1
20210927073722 58 198 0.0 0.0 0.00 0.00 0.00 94 970.1
20210927072717 58 198 0.0 0.0 0.00 0.00 0.00 94 970.2
20210927071720 58 198 0.0 0.0 0.00 0.00 0.00 94 970.2
20210927070727 58 198 0.0 0.0 0.00 0.00 0.00 94 970.2
20210927065725 58 198 0.0 0.0 0.00 0.00 0.00 94 970.2
20210927064746 58 198 0.0 0.0 0.00 0.00 0.00 94 970.1
20210927063723 58 213 0.0 0.0 0.00 0.00 0.00 94 970.2
20210927062729 58 213 0.0 0.0 0.00 0.00 0.00 94 970.2
20210927061749 58 213 0.0 0.0 0.00 0.00 0.00 94 970.2
20210927060806 58 213 0.0 0.9 0.00 0.00 0.00 93 970.2
20210927055818 58 213 0.0 0.0 0.00 0.00 0.00 94 970.2
20210927054822 58 213 0.0 2.6 0.00 0.00 0.00 93 970.2
20210927053839 58 159 0.0 2.6 0.00 0.00 0.00 93 970.2
20210927052857 58 151 0.0 2.6 0.00 0.00 0.00 93 970.2
20210927051918 58 184 0.9 3.5 0.00 0.00 0.00 93 970.1
20210927050916 58 234 0.9 3.5 0.00 0.00 0.00 93 970.0
20210927045924 58 202 0.0 2.6 0.00 0.00 0.00 93 970.0
20210927044933 58 206 0.9 3.5 0.00 0.00 0.00 93 969.9
20210927043933 58 190 0.0 2.6 0.00 0.00 0.00 93 970.0
20210927042936 58 146 0.9 3.5 0.00 0.00 0.00 93 969.9
20210927041958 58 217 0.0 2.6 0.00 0.00 0.00 93 969.8
20210927041004 58 188 0.0 1.7 0.00 0.00 0.00 92 969.7
20210927033950 58 207 0.9 2.6 0.00 0.00 0.00 92 969.4
20210927032947 58 210 0.0 2.6 0.00 0.00 0.00 92 969.4
20210927031934 58 210 0.0 2.6 0.00 0.00 0.00 91 969.3
20210927030920 58 204 0.9 2.6 0.00 0.00 0.00 91 969.2
20210927025919 58 220 0.9 2.6 0.00 0.00 0.00 90 969.1
20210927024903 58 180 0.0 2.6 0.00 0.00 0.00 90 969.0
20210927023833 58 173 0.0 2.6 0.00 0.00 0.00 90 968.9
20210927022800 58 198 0.0 1.7 0.00 0.00 0.00 89 968.8
20210927021800 58 188 0.0 1.7 0.00 0.00 0.00 88 968.8
20210927020730 59 194 0.0 0.0 0.00 0.00 0.00 87 968.8
20210927015752 59 194 0.0 0.0 0.00 0.00 0.00 87 968.7
20210927014801 59 174 0.0 0.0 0.00 0.00 0.00 86 968.6
20210927013748 60 173 0.0 0.0 0.00 0.00 0.00 85 968.6
20210927012750 60 173 0.0 0.9 0.00 0.00 0.00 85 968.6
20210927011810 60 189 0.0 0.9 0.00 0.00 0.00 85 968.6
20210927010811 60 190 0.0 0.0 0.00 0.00 0.00 85 968.5
20210927005807 61 161 0.9 4.3 0.00 0.00 0.00 84 968.5
20210927004750 61 222 0.9 4.3 0.00 0.00 0.00 83 968.4
20210927003730 61 171 0.9 3.5 0.00 0.00 0.00 83 968.6
20210927002735 61 166 1.7 5.2 0.00 0.00 0.00 83 968.6
20210927001719 61 229 1.7 6.1 0.00 0.00 0.00 84 968.7
20210927000717 61 193 1.7 6.1 0.00 0.00 0.00 83 968.7
20210926235650 61 226 1.7 6.1 0.00 0.00 0.00 82 968.8
20210926234631 62 126 1.7 5.2 0.00 0.00 0.00 81 968.8
20210926233618 62 226 1.7 6.1 0.00 0.00 0.00 81 968.8
20210926232624 62 214 2.6 6.1 0.00 0.00 0.00 79 968.7
20210926230624 64 206 2.6 7.0 0.00 0.00 0.00 77 968.7
20210926225610 65 226 2.6 6.1 0.00 0.00 0.00 75 968.7
20210926224559 65 182 2.6 7.0 0.00 0.00 0.00 75 968.7
20210926223611 66 259 2.6 7.8 0.00 0.00 0.00 74 968.6
20210926222544 66 223 2.6 7.8 0.00 0.00 0.00 73 968.6
20210926221509 67 138 1.7 6.1 0.00 0.00 0.00 71 968.6
20210926220452 67 211 0.9 6.1 0.00 0.00 0.00 70 968.6
20210926215452 67 246 2.6 6.1 0.00 0.00 0.00 71 968.6
20210926214508 68 183 1.7 6.1 0.00 0.00 0.00 70 968.6
20210926213444 68 190 0.9 4.3 0.00 0.00 0.00 69 968.6
20210926212507 67 241 1.7 6.1 0.00 0.00 0.00 72 968.6
20210926211457 67 205 1.7 6.1 0.00 0.00 0.00 71 968.6
20210926210432 67 188 1.7 7.8 0.00 0.00 0.00 73 968.8
20210926205403 67 211 1.7 7.8 0.00 0.00 0.00 72 969.0
20210926204421 67 215 1.7 6.1 0.00 0.00 0.00 72 969.1
20210926203347 67 148 2.6 7.0 0.00 0.00 0.00 72 969.2
20210926202336 67 140 2.6 7.0 0.00 0.00 0.00 70 969.2
20210926201313 69 273 0.9 6.1 0.00 0.00 0.00 69 969.2
20210926200251 69 213 1.7 5.2 0.00 0.00 0.00 68 969.3
20210926195221 68 190 1.7 7.0 0.00 0.00 0.00 70 969.4
20210926194233 68 207 1.7 7.0 0.00 0.00 0.00 69 969.5
20210926193231 68 238 0.9 4.3 0.00 0.00 0.00 71 969.5
20210926192225 66 160 1.7 4.3 0.00 0.00 0.00 73 969.5
20210926191224 65 135 0.0 2.6 0.00 0.00 0.00 80 969.6
20210926190227 63 198 0.9 3.5 0.00 0.00 0.00 83 969.7
20210926185227 62 218 0.0 3.5 0.00 0.00 0.00 90 969.7
20210926184250 61 212 0.0 2.6 0.00 0.00 0.00 93 969.9
20210926183242 60 215 0.0 2.6 0.00 0.00 0.00 94 970.0
20210926182220 59 225 0.0 1.7 0.00 0.00 0.00 95 970.1
20210926181149 59 211 0.0 1.7 0.00 0.00 0.00 95 970.2
20210926180152 59 212 0.0 1.7 0.00 0.00 0.00 96 970.3
20210926175200 59 212 0.0 0.9 0.00 0.00 0.00 96 970.3
20210926174141 58 201 0.0 0.0 0.00 0.00 0.00 96 970.2
20210926173118 58 205 0.0 1.7 0.00 0.00 0.00 96 970.3
20210926172127 58 204 0.0 0.9 0.00 0.00 0.00 96 970.3
20210926171057 58 209 0.0 0.0 0.00 0.00 0.00 96 970.2
20210926170059 58 209 0.0 0.9 0.00 0.00 0.00 96 970.2
20210926165046 58 220 0.0 1.7 0.00 0.00 0.00 96 970.2
20210926164040 58 206 0.0 0.0 0.00 0.00 0.00 96 970.1
20210926163010 58 206 0.0 0.0 0.00 0.00 0.00 96 970.1
20210926162033 58 257 0.0 0.0 0.00 0.00 0.00 96 970.0
20210926161027 58 229 0.0 0.0 0.00 0.00 0.00 96 969.8
20210926160017 58 229 0.0 0.0 0.00 0.00 0.00 96 969.8
20210926155042 58 229 0.0 0.0 0.00 0.00 0.00 96 969.7
20210926154014 58 229 0.0 0.0 0.00 0.00 0.00 96 969.7
20210926152944 58 229 0.0 0.0 0.00 0.00 0.00 96 969.6
20210926151944 58 229 0.0 0.0 0.00 0.00 0.00 96 969.5
20210926150928 58 221 0.0 0.0 0.00 0.00 0.00 96 969.5
20210926145946 58 221 0.0 0.0 0.00 0.00 0.00 96 969.3
20210926144940 58 220 0.0 0.0 0.00 0.00 0.00 96 969.2
20210926143942 58 220 0.0 0.0 0.00 0.00 0.00 96 969.2
20210926142914 57 220 0.0 0.0 0.00 0.00 0.00 96 969.2
20210926141928 57 220 0.0 0.0 0.00 0.00 0.00 96 969.1
20210926140931 57 220 0.0 0.0 0.00 0.00 0.00 96 969.1
20210926135906 57 220 0.0 0.0 0.00 0.00 0.00 96 969.1
20210926134908 57 220 0.0 0.0 0.00 0.00 0.00 96 969.1
20210926133933 57 220 0.0 0.0 0.00 0.00 0.00 96 969.1
20210926132900 57 220 0.0 0.0 0.00 0.00 0.00 96 969.1
20210926131920 57 220 0.0 0.0 0.00 0.00 0.00 96 969.1
20210926130928 57 220 0.0 0.0 0.00 0.00 0.00 96 969.0
20210926125908 57 220 0.0 0.0 0.00 0.00 0.00 96 968.9
20210926124837 57 220 0.0 0.0 0.00 0.00 0.00 96 968.9
20210926123847 57 220 0.0 0.0 0.00 0.00 0.00 96 968.9
20210926122852 57 220 0.0 0.0 0.00 0.00 0.00 96 968.9
20210926121841 57 220 0.0 0.0 0.00 0.00 0.00 96 969.0
20210926120818 57 220 0.0 0.9 0.00 0.00 0.00 96 969.1
20210926115810 58 251 0.0 0.0 0.00 0.00 0.00 96 968.8
20210926114745 58 251 0.0 0.0 0.00 0.00 0.00 96 968.7
20210926113758 57 251 0.0 0.0 0.00 0.00 0.00 96 968.7
20210926112811 58 251 0.0 0.0 0.00 0.00 0.00 96 968.7
20210926111810 58 251 0.0 0.0 0.00 0.00 0.00 96 968.6
20210926110828 58 251 0.0 0.0 0.00 0.00 0.00 96 968.6
20210926105808 58 251 0.0 0.0 0.00 0.00 0.00 96 968.6
20210926104815 58 251 0.0 0.0 0.00 0.00 0.00 96 968.7
20210926103824 58 251 0.0 0.0 0.00 0.00 0.00 96 968.8
20210926102827 58 251 0.0 0.0 0.00 0.00 0.00 96 968.7
20210926101755 58 252 0.0 0.0 0.00 0.00 0.00 96 968.7
20210926100814 58 125 0.0 1.7 0.00 0.00 0.00 96 968.8
20210926095805 58 155 0.0 3.5 0.00 0.00 0.00 95 968.9
20210926094733 58 221 0.0 1.7 0.00 0.00 0.00 95 968.9
20210926093711 58 225 0.0 0.0 0.00 0.00 0.00 95 969.0
20210926092647 57 205 0.0 0.0 0.00 0.00 0.00 95 968.9
20210926091624 57 205 0.0 0.0 0.00 0.00 0.00 95 968.8
20210926090555 57 213 0.0 0.0 0.00 0.00 0.00 95 968.7
20210926085606 57 227 0.0 2.6 0.00 0.00 0.00 95 968.7
20210926084536 57 177 0.0 0.9 0.00 0.00 0.00 95 968.9
20210926083552 57 177 0.0 1.7 0.00 0.00 0.00 95 968.8
20210926082608 57 194 0.0 2.6 0.00 0.00 0.00 95 968.7
20210926081632 57 171 0.0 2.6 0.00 0.00 0.00 95 968.7
20210926080609 57 234 0.0 2.6 0.00 0.00 0.00 95 968.7
20210926075633 57 217 0.0 3.5 0.00 0.00 0.00 95 968.7